STARLINK-31956, 59930

Orbit data source: Space-Track

STARLINK-31956, 59930 is a payload satellite owned by SpaceX/Seattle (US) in LEO that was launched on Sat, 01 Jun 2024 UTC via an FALCON 9 launch vehicle from the Air Force Eastern Test Range (AFETR). Payload-class satellites include a variety of spacecraft equipped with specific instruments for various scientific and technological missions. These include communications satellites like Starlink; space stations such as the ISS; scientific satellites like the Hubble; Earth observation satellites from companies like Planet Labs, Umbra, and HawkEye 360; GPS; miniature CubeSats for education and research; and military/defense satellites.

Loading next visibility...
Identifier
59930, 2024-106J
Orbit
LEO
Country
Flag of USUS
Related business
Manufacturer
SpaceX/Seattle
Mission
Operational Commercial Communications
Bus & Motor
STARLINK V2M, Unknown motor
Mass
730 kg wet, ~700 kg dry
Launch date (UTC)
2024-06-01 (2 years ago)
Launch vehicle
FALCON 9
Launch site
Air Force Eastern Test Range (AFETR)
Object type
Payload
Rocket body
Debris
Shape & HBR
Box + 2 Pan, 17.7 m
Radar Cross Section
33.884 m², Large (>1 m²)

Expand to show TLE details & history
Last TLE update: 8 hours ago

TLE from 8 hours ago
0 STARLINK-31956
1 59930U 24106J   26036.39158365  .00003150  00000-0  12387-3 0  9999
2 59930  43.0011 154.8901 0001847 281.6810  78.3835 15.27596479 95587
Epoch: 2026-02-05T09:23Z
TLE epoch observation values (Epoch: 2026-02-05T09:23:52.827Z)
Latitude
0.00003°
Longitude
-121.62446°
Altitude
482.52 km
Speed
7.626 km/s
True Right ascension
10h 19m 33s
True Declination
0° 00' 00"
Sunlit
Object was in full shadow at epoch
Visualization orbit readout
Latitude
Unknown
Longitude
Unknown
Altitude
Unknown
Speed
Unknown
Apparent Right ascension
Unknown
Apparent Declination
Unknown
Sunlit
N/A
Visualization observer readout
Local Sidereal Time
19:48:42
Azimuth
Unknown
Elevation
Unknown
Doppler factor
Unknown
Orbital elements
Apogee altitude
486.212 km
Perigee altitude
483.677 km
Semi-major axis
6,863.082 km
Eccentricity
0.00018
Inclination
43.0011°
RAAN
154.8901°
Arg. of periapsis
281.681°
True anomaly
78.40423°
Mean anomaly
78.3835°
Eccentric anomaly
78.39387°
Mean motion
3.81737 °/min
Orbital period
94.31 mins
BSTAR
0.00012387
Loading maneuver chart data...
Computing Atmospheric mass density...
Loading historical data...
Loading historical data...
Loading historical data...
Loading historical data...
Loading historical data...
Loading historical data...
Loading historical data...

Documentation

Showing up to 5 results
|